Location: Omaha
(41.2590°N, 95.9380°W)
Time: 18:39:49
(UTC-06:00)

N. Korean satellite - Pass Details

Date: 09 October 2017
Orbit: 461 x 513 km, 97.2° (Epoch: 13 December)

Event Time Altitude Azimuth Distance (km) Brightness Sun altitude
Rises 20:22:44 0° 204° (SSW) 2,569 10.5 -17.9°
Reaches altitude 10° 20:25:25 10° 226° (SW) 1,681 9.8 -18.4°
Maximum altitude 20:27:46 16° 267° (W) 1,325 9.8 -18.8°
Drops below altitude 10° 20:30:07 10° 307° (NW) 1,670 10.2 -19.2°
Sets 20:32:47 0° 330° (NNW) 2,544 10.8 -19.7°
